Regional Weather Roundup
Issued by NWS State College, PA

Home | Current Version | Previous Version | Graphics & Text | Print | Product List | Glossary Off
Versions: 1 2 3 4 5 6 7 8 9 10 11 12 13 14 15 16 17 18 19 20 21 22 23 24 25 26 27 28 29 30 31 32 33 34 35 36 37 38 39 40 41 42 43 44 45 46 47 48 49 50

000
ASUS41 KCTP 311903
RWRCTP

REGIONAL WEATHER ROUNDUP
NATIONAL WEATHER SERVICE STATE COLLEGE PA
300 PM EDT WED AUG 31 2016

Note: "fair" indicates few or no clouds below 12,000 feet with no
significant weather and/or obstructions to visibility.

* = STATION THAT DOES NOT REPORT PRECIPITATION /E.G. RAIN...SNOW...ETC/
    THUNDER OR FOG.

PAZ002>004-007>009-013>016-020>023-029>032-312000-
WESTERN PENNSYLVANIA

CITY           SKY/WX    TMP DP  RH WIND       PRES   REMARKS
ERIE           LGT RAIN  74  70  87 SW3       29.94S
MEADVILLE      CLOUDY    70  67  90 VRB5      29.98F
FRANKLIN*        N/A     66  63  88 SE7       30.00F
NEW CASTLE     LGT RAIN  73  67  81 NE6       29.99S
BEAVER COUNTY  CLOUDY    79  63  57 CALM      29.98F
BUTLER*        NOT AVBL
PITTSBURGH INT CLOUDY    84  58  40 CALM      29.97F
PITTSBURGH     CLOUDY    79  62  56 S5        29.97F
INDIANA*       CLOUDY    75  63  64 CALM      30.02F
LATROBE        PTSUNNY   79  61  53 W7        29.99F
WASHINGTON CO* PTSUNNY   82  63  51 E5        29.98F
$$

PAZ004>006-010>012-017>019-024>028-033>037-041-042-045-046-049>053-312000-
CENTRAL PENNSYLVANIA

CITY           SKY/WX    TMP DP  RH WIND       PRES   REMARKS
BRADFORD       CLOUDY    68  66  93 VRB3      30.00F
DUBOIS         CLOUDY    70  60  70 CALM      30.01F
CLEARFIELD     CLOUDY    73  63  70 N5        30.01S
JOHNSTOWN      CLOUDY    75  58  55 NW6       30.03F
ALTOONA        CLOUDY    81  62  52 NW9       29.98F
STATE COLLEGE  CLOUDY    77  64  65 N6        29.98F
WILLIAMSPORT   CLOUDY    76  63  64 W5        29.94F
SELINSGROVE    MOSUNNY   85  68  56 CALM      29.93F
FT INDIANTOWN  PTSUNNY   86  68  54 W6        29.92F
CAPITAL CITY   CLOUDY    87  67  51 N3        29.90F
HARRISBURG     LGT RAIN  82  72  71 S5        29.90F
YORK           MOSUNNY   88  65  46 VRB5G16   29.90F
$$

PAZ038>040-043-044-047-048-054-055-060>062-067>071-312000-
EASTERN PENNSYLVANIA

CITY           SKY/WX    TMP DP  RH WIND       PRES   REMARKS
SCRANTON       CLOUDY    81  66  60 VRB7      29.95F
MOUNT POCONO   CLOUDY    77  64  64 W9        30.00F
ALLENTOWN      CLOUDY    86  65  49 W6        29.92F
QUAKERTOWN*    MOCLDY    86  61  42 SW3       29.93F
READING        CLOUDY    86  65  49 W5        29.91F
LANCASTER      MOSUNNY   88  67  49 VRB3      29.91F
COATESVILLE    PTCLDY    84  64  51 VRB5      29.95F
POTTSTOWN      MOSUNNY   87  62  43 NW6       29.93F
BLUE BELL      MOSUNNY   86  63  45 W3        29.92F
DOYLESTOWN     CLOUDY    88  63  43 CALM      29.91F
WILLOW GROVE   NOT AVBL
NORTH PHILA    PTSUNNY   89  64  43 W8        29.93F
PHILADELPHIA   PTSUNNY   89  62  40 SW8       29.91F
$$



USA.gov is the U.S. government's official web portal to all federal, state and local government web resources and services.